Overview Statistics Trail Chart Weather Telemetry Raw packets
 

This is the latest recevied weather packets stored in our database for station/object DOUGLAS. If no packets are shown the sender has not sent any weather packets the latest 10 day(s).

<< 19 20 21 22 23 24 25 >>
Time Temp. Humidity Pressure Rain* Wind** Luminosity Snow
1788320403 12.78° C 97% 0 hPa - - - -
1788319804 12.78° C 98% 0 hPa - - - -
1788319203 12.78° C 98% 0 hPa - - - -
1788318603 12.78° C 98% 0 hPa - - - -
1788318003 12.78° C 97% 0 hPa - - - -
1788317403 12.78° C 97% 0 hPa - - - -
1788316803 13.33° C 98% 0 hPa - - - -
1788316202 13.33° C 97% 0 hPa - - - -
1788315602 13.33° C 95% 0 hPa - - - -
1788315003 13.89° C 94% 0 hPa - - - -
1788314403 13.89° C 94% 0 hPa - - - -
1788313803 13.89° C 93% 0 hPa - - - -
1788313203 13.89° C 94% 0 hPa - - - -
1788312603 13.89° C 93% 0 hPa - - - -
1788312003 14.44° C 88% 0 hPa - - - -
1788311403 15° C 86% 0 hPa - - - -
1788310803 14.44° C 92% 0 hPa - - - -
1788310203 13.89° C 93% 0 hPa - - - -
1788309603 14.44° C 94% 0 hPa - - - -
1788309002 14.44° C 94% 0 hPa - - - -
1788308402 14.44° C 90% 0 hPa - - - -
1788307803 15° C 90% 0 hPa - - - -
1788307203 14.44° C 90% 0 hPa - - - -
1788306603 15° C 88% 0 hPa - - - -
1788306003 15° C 88% 0 hPa - - - -

* Rain since midnight (hover to see other rain measurements)
** Current wind speed in m/s (hover to see current wind gust speed)